Dayton Wright, OH

5:59 AM EDT on September 26, 2017 (GMT -0400)
Dayton-Wright Brothers

Weather History for KMGY - December, 2013

Change the Weather History Date:

Tuesday, December 17, 2013

  Actual Average (KFFO) Record (KFFO)
Temperature  
Mean Temperature 30 °F -  
Max Temperature 34 °F 37 °F 62 °F (2006)
Min Temperature 26 °F 22 °F 8 °F (2000)
Degree Days  
Heating Degree Days 35    
Moisture  
Dew Point 24 °F    
Average Humidity 84    
Maximum Humidity 93    
Minimum Humidity 78    
Precipitation  
Precipitation 0.00 in - - ()
Sea Level Pressure  
Sea Level Pressure 30.05 in    
Wind  
Wind Speed 8 mph (West)    
Max Wind Speed 13 mph    
Max Gust Speed 18 mph    
Visibility 7 miles    
Events Snow    
Averages and records for this station are not official NWS values.
T = Trace of Precipitation, MM = Missing Value Source: NWS Daily Summary

Daily Weather History Graph

Daily Weather History Graph

Search for Another Location

Airport or City:

Trip Planner

Search our weather history database for the weather conditions in past years. The results will help you decide how hot, cold, wet, or windy it might be!

Date:

Astronomy

Dec. 17, 2013 Rise Set
Actual Time 7:51 AM EST 5:14 PM EST
Civil Twilight 7:21 AM EST 5:44 PM EST
Nautical Twilight 6:47 AM EST 6:18 PM EST
Astronomical Twilight 6:14 AM EST 6:51 PM EST
Moon 5:53 PM EST (12/17) 7:47 AM EST (12/17)
Length of Visible Light 10h 23m
Length of Day
9h 22m
Full, 100% of the Moon is Illuminated
Dec 17
Full
Dec 25
Last Quarter
Jan 1
New
Jan 7
First Quarter
Jan 15
Full

Hourly Weather History & Observations

Time (EST) Temp. Windchill Dew Point Humidity Pressure Visibility Wind Dir Wind Speed Gust Speed Precip Events Conditions
12:53 AM 30.9 °F 23.5 °F 28.9 °F 92% 29.99 in 4.0 mi SSW 8.1 mph - N/A   Partly Cloudy
1:53 AM 34.0 °F 26.6 °F 30.0 °F 85% 29.99 in 7.0 mi West 9.2 mph - N/A   Mostly Cloudy
2:53 AM 32.0 °F 24.8 °F 28.9 °F 88% 30.03 in 5.0 mi West 8.1 mph - N/A   Overcast
3:53 AM 30.0 °F 21.1 °F 28.0 °F 92% 30.03 in 3.0 mi WNW 10.4 mph - N/A   Overcast
4:53 AM 28.9 °F 21.9 °F 27.0 °F 92% 30.02 in 4.0 mi NW 6.9 mph - N/A   Overcast
5:40 AM 28.4 °F 22.2 °F 26.6 °F 93% 30.00 in 3.0 mi WNW 5.8 mph - N/A   Overcast
5:53 AM 28.0 °F 21.7 °F 26.1 °F 92% 30.02 in 3.0 mi NW 5.8 mph - N/A   Overcast
6:22 AM 28.4 °F 21.2 °F 26.6 °F 93% 30.02 in 4.0 mi NW 6.9 mph - N/A   Overcast
6:53 AM 28.0 °F 19.3 °F 25.0 °F 88% 30.06 in 6.0 mi NW 9.2 mph - N/A   Overcast
7:53 AM 27.0 °F 20.5 °F 23.0 °F 85% 30.07 in 9.0 mi WNW 5.8 mph - N/A   Overcast
8:53 AM 26.1 °F 17.6 °F 21.9 °F 84% 30.07 in 7.0 mi WSW 8.1 mph - N/A   Overcast
9:53 AM 27.0 °F 21.6 °F 23.0 °F 85% 30.09 in 7.0 mi WSW 4.6 mph - N/A   Overcast
10:24 AM 26.6 °F 19.1 °F 21.2 °F 80% 30.08 in 7.0 mi WNW 6.9 mph - N/A   Overcast
10:53 AM 26.1 °F 19.4 °F 21.9 °F 84% 30.11 in 7.0 mi West 5.8 mph - N/A   Overcast
11:45 AM 26.6 °F 19.1 °F 21.2 °F 80% 30.05 in 8.0 mi WSW 6.9 mph - N/A   Overcast
11:53 AM 27.0 °F 19.5 °F 21.9 °F 81% 30.08 in 8.0 mi SW 6.9 mph - N/A   Overcast
12:53 PM 27.0 °F 17.3 °F 21.9 °F 81% 30.03 in 8.0 mi WSW 10.4 mph - N/A   Overcast
1:53 PM 28.0 °F 20.0 °F 23.0 °F 81% 30.01 in 8.0 mi West 8.1 mph - N/A   Overcast
2:53 PM 28.0 °F 19.3 °F 23.0 °F 81% 30.03 in 8.0 mi West 9.2 mph 17.3 mph N/A   Overcast
3:29 PM 28.4 °F 19.7 °F 23.0 °F 80% 30.00 in 10.0 mi SW 9.2 mph - N/A   Overcast
3:53 PM 28.0 °F 18.6 °F 23.0 °F 81% 30.03 in 10.0 mi WSW 10.4 mph - N/A   Overcast
4:53 PM 28.9 °F 20.4 °F 23.0 °F 78% 30.04 in 9.0 mi WSW 9.2 mph - N/A   Overcast
5:11 PM 28.4 °F 19.7 °F 23.0 °F 80% 30.02 in 10.0 mi WSW 9.2 mph - N/A   Overcast
5:20 PM 28.4 °F 20.4 °F 23.0 °F 80% 30.02 in 2.5 mi WSW 8.1 mph - 0.00 in Snow Light Snow
5:28 PM 28.4 °F 19.1 °F 23.0 °F 80% 30.02 in 2.5 mi WSW 10.4 mph - 0.00 in Snow Light Snow
5:41 PM 28.4 °F 18.5 °F 24.8 °F 86% 30.02 in 1.8 mi WSW 11.5 mph - 0.00 in Snow Light Snow
5:45 PM 28.4 °F 19.1 °F 24.8 °F 86% 30.02 in 3.0 mi West 10.4 mph - 0.00 in Snow Light Snow
5:53 PM 28.9 °F 20.4 °F 24.1 °F 82% 30.06 in 4.0 mi West 9.2 mph - 0.00 in Snow Light Snow
6:02 PM 28.4 °F 20.4 °F 24.8 °F 86% 30.03 in 5.0 mi West 8.1 mph - 0.00 in Snow Light Snow
6:16 PM 28.4 °F 19.7 °F 24.8 °F 86% 30.04 in 10.0 mi West 9.2 mph - 0.00 in   Overcast
6:53 PM 28.9 °F 18.6 °F 24.1 °F 82% 30.09 in 10.0 mi West 12.7 mph 18.4 mph 0.00 in   Overcast
7:53 PM 28.9 °F 19.2 °F 23.0 °F 78% 30.11 in 10.0 mi West 11.5 mph - N/A   Overcast
8:53 PM 28.9 °F 21.1 °F 24.1 °F 82% 30.14 in 9.0 mi West 8.1 mph - N/A   Overcast
9:53 PM 28.9 °F 21.9 °F 24.1 °F 82% 30.14 in 9.0 mi West 6.9 mph - N/A   Overcast
10:53 PM 28.0 °F 20.0 °F 23.0 °F 81% 30.16 in 8.0 mi WSW 8.1 mph - N/A   Scattered Clouds
11:53 PM 26.1 °F 18.4 °F 21.9 °F 84% 30.16 in 8.0 mi WSW 6.9 mph - N/A   Clear